Location: Unspecified
(0.0000°N, 0.0000°E)
Time: 00:17:32
(UTC+00:00)

Vanguard 2 Rocket - Pass Details

Date: 16 December 2018
Orbit: 554 x 3327 km, 32.9° (Epoch: 18 January)

Event Time Altitude Azimuth Distance (km) Brightness Sun altitude
Rises 12:29:45 0° 318° (NW) 3,984 10.1 65.2°
Reaches altitude 10° 12:32:05 10° 323° (NW) 3,293 9.7 65.1°
Maximum altitude 12:40:35 55° 40° (NE) 2,185 9.3 64.2°
Drops below altitude 10° 12:55:32 10° 113° (ESE) 5,586 11.0 62.5°
Sets 13:00:49 0° 117° (ESE) 6,923 11.4 61.8°
